Regional Weather Roundup
Issued by NWS Burlington, VT

Home | Current Version | Previous Version | Text Only | Print | Product List | Glossary On
Versions: 1 2 3 4 5 6 7 8 9 10 11 12 13 14 15 16 17 18 19 20 21 22 23 24 25 26 27
000
ASUS41 KBTV 251310
RWRBTV
VERMONT REGIONAL WEATHER ROUNDUP
NATIONAL WEATHER SERVICE BURLINGTON VT
900 AM EDT SAT OCT 25 2014

NOTE: "FAIR" INDICATES FEW OR NO CLOUDS BELOW 12,000 FEET WITH NO
SIGNIFICANT WEATHER AND/OR OBSTRUCTIONS TO VISIBILITY.

* THESE REPORTS ARE NOT UNDER NWS QUALITY CONTROL AND/OR DO NOT
  REPORT WEATHER SUCH AS PRECIPITATION AND FOG.

VTZ001>019-251400-
_____VERMONT_____


CITY           SKY/WX    TMP DP  RH WIND       PRES   REMARKS
BURLINGTON     MOSUNNY   43  40  89 CALM      29.78S
MONTPELIER     MOSUNNY   37  36  96 CALM      29.78S
MORRISVILLE    MOSUNNY   36  34  92 CALM      29.77S
ST. JOHNSBURY*   N/A     34  34 100 MISG      29.75F
LYNDONVILLE*   FAIR      33  31  95 CALM      29.76F
MIDDLEBURY*    FAIR      43  43 100 S5        29.78F
RUTLAND*       SUNNY     37  37 100 SE3       29.79S
SPRINGFIELD    FOG       34  34 100 CALM      29.78F VSB 1/4
HIGHGATE*      FAIR      43  40  88 S6        29.75F
NEWPORT*       FAIR      35  34  97 SW6       29.74S
BENNINGTON     CLOUDY    46  42  86 CALM      29.82S FOG

_____LAKE CHAMPLAIN_____


CITY           SKY/WX    TMP DP  RH WIND       PRES   REMARKS
COLCHESTER RF*   N/A     45  45 100 S15         N/A
DIAMOND ISL*     N/A     43  41  93 S10         N/A

$$

NYZ007-026>031-035-052-083-251400-
_____NORTHERN NEW YORK_____


CITY           SKY/WX    TMP DP  RH WIND       PRES   REMARKS
PLATTSBURGH    SUNNY     49  41  74 CALM      29.77S
SARANAC LAKE   CLOUDY    39  38  96 SW7       29.76S FOG
MASSENA        CLOUDY    44  40  85 SW8       29.77F
OGDENSBURG*    CLOUDY    45  45 100 S3        29.76F
POTSDAM*       CLOUDY    46  45  93 SW5       29.76F
WATERTOWN      CLOUDY    50  43  77 S7        29.78F
FT DRUM        CLOUDY    48  43  81 S6        29.78F
ALBANY         MOSUNNY   49  42  77 SW5       29.83F
GLENS FALLS    FOG       42  41  96 CALM      29.81S VSB 1/4

$$
NHZ002-005-011-251400-
_____NEW HAMPSHIRE_____


CITY           SKY/WX    TMP DP  RH WIND       PRES   REMARKS
LEBANON        FOG       36  34  92 CALM      29.77S VSB 1/4
KEENE          CLOUDY    37  30  75 CALM      29.79S VSB 1/4
MT WASHINGTON  MOSUNNY   32  19  59 NW40        N/A
PLYMOUTH       FAIR      46  40  79 NW3       29.72S
WHITEFIELD     MOSUNNY   34  33  96 CALM      29.74F

$$

_____REGIONAL QUEBEC LOCATIONS_____


CITY           SKY/WX    TMP DP  RH WIND       PRES   REMARKS
MONTREAL       MOSUNNY   45  36  70 SW15      29.73F
SHERBROOKE     SUNNY     37  36  93 CALM      29.72F

_____REGIONAL ONTARIO LOCATIONS_____


CITY           SKY/WX    TMP DP  RH WIND       PRES   REMARKS
OTTAWA         CLOUDY    43  37  81 S5        29.73F

______KEY______
VSB  - VISIBILITY IN MILES
WCI  - WIND CHILL INDEX
HX   - HEAT INDEX
$$
NNNN



USA.gov is the U.S. government's official web portal to all federal, state and local government web resources and services.